NOAA 16 DEB, 41058

Orbit data source: Space-Track

NOAA 16 DEB, 41058 is space debris in SSO originally from a launch on Thu, 21 Sep 2000 UTC launched from the Air Force Western Test Range (AFWTR). Debris objects in space refer to the collection of defunct objects orbiting the Earth. Examples of debris include non-operational satellites, rocket bodies, and fragments generated from explosions, collisions, or faulty payload assembly.

Loading next visibility...
Identifier
41058, 2000-055R
Orbit
SSO
Last TLE update
17 hours ago
Origin
Manufacturer
Unknown
Mission
Spacecraft
Bus & Motor
Unknown
Mass
Unknown
Launch date (UTC)
2000-09-21 (25 years ago)
Launch vehicle
Unknown
Launch site
Air Force Western Test Range (AFWTR)
Object type
Payload
Rocket body
Debris
Shape & HBR
Unknown
Radar Cross Section
Small (<0.1 m²)

Expand to show TLE details & history

TLE from 17 hours ago
0 NOAA 16 DEB
1 41058U 00055R   25128.55662812  .00001361  00000-0  76445-3 0  9991
2 41058  98.5834 137.6080 0022560 218.4247 141.5319 14.12007348485815
Epoch: 2025-05-08T13:21Z
Definitive object data (Epoch: 2025-05-08T13:21:32.669Z)
Latitude
-0.00009°
Longitude
70.59647°
Altitude
868.207 km
Speed
7.412 km/s
True Right ascension
09h 10m 25s
True Declination
0° 00' 00"
Sunlit
Object was in daylight at TLE epoch
Visualization TLE readout
Latitude
70.80407°
Longitude
45.74101°
Altitude
877.832 km
Speed
7.413 km/s
Apparent Right ascension
04h 17m 12s
Apparent Declination
24° 10' 35"
Sunlit
Object is in daylight
Visualization observer readout
Local Sidereal Time
14:51:28
Azimuth
338.789° N
Elevation
-22.863°
Doppler factor
1
Orbital elements
Apogee altitude
865.98 km
Perigee altitude
833.368 km
Semi-major axis
7,227.811 km
Eccentricity
0.002256
Inclination
98.5834°
RAAN
137.608°
Arg. of periapsis
218.4247°
True anomaly
141.69236°
Mean anomaly
141.5319°
Eccentric anomaly
141.61217°
Mean motion
3.5321 °/min
BSTAR
0.00076445
Orbital period
101.92 mins
Loading maneuver chart data...
Loading SW <> Apogee altitude chart data...
Loading historical data...
Loading historical data...
Loading historical data...
Loading historical data...
Loading historical data...
Loading historical data...
Loading historical data...

NOAA 16 DEB Visibility forecast

Observer location: undefined°, undefined°

Span
Click to sort rows by Start time (UTC) header in descending order
Start Az.
Max El. time (UTC)
Max El. Az.
Max El.
End time (UTC)
End Az.
5 mins2025-05-09 12:05:35.877Z59.366° ENE2025-05-09 12:08:35.877Z94.598° ESE14.926°2025-05-09 12:10:35.877Z118.222° SE
9 mins2025-05-09 13:45:35.877Z4.066° NNE2025-05-09 13:49:35.877Z280.144° WNW42.242°2025-05-09 13:54:35.877Z206.692° SW
7 mins2025-05-09 23:31:35.877Z112.766° SE2025-05-09 23:34:35.877Z71.531° E24.803°2025-05-09 23:38:35.877Z15.86° NNE
9 mins2025-05-10 01:11:35.877Z200.277° SSW2025-05-10 01:15:35.877Z266.256° W32.638°2025-05-10 01:20:35.877Z330.969° NNW
|